Weather in Strel'noshirokoye

Russia / Volgograd Oblast     49°18′38″N   44°56′42″E
temp.,
°C
wind,
m/s
gust,
m/s
humid.,
%
clouds,
%
prec.,
mm/h
press.,
hPa
HPBL,
m
26 july, mon
mon2600:00+21nne58565 0.0 1021118
03:00+20nne4657100 0.0 102195
06:00+20ne5757100 0.0 1022139
09:00+22ene465133 0.0 1023200
12:00+25ne444129 0.0 1022672
15:00+25n55411 0.0 1021721
18:00+24nne45430 0.0 1021395
21:00+22ne564976 0.0 102161
27 july, tue
tue2700:00+20ne585297 0.0 1021115
03:00+19nne47580 0.0 1022114
06:00+19ne35560 0.0 1022111
09:00+22ne56450 0.0 1022411
12:00+24nne56401 0.0 1021752
15:00+24n56402 0.0 1019845
18:00+25ne344230 0.0 1019552
21:00+23ne22480 0.0 101911
28 july, wed
wed2800:00+22nnw33495 0.0 101914
03:00+20nnw44604 0.0 101842
06:00+20nnw34630 0.0 101967
09:00+22nne34530 0.0 1019285
12:00+23nnw22481 0.0 1018809
15:00+25nne22432 0.0 1016440
18:00+26n11442 0.0 1016265
21:00+23w11475 0.0 101611
29 july, thu
thu2900:00+23s22455 0.0 101511
03:00+22ssw33475 0.0 101414
06:00+22sw334812 0.0 101437
09:00+25sw574368 0.0 1014342
12:00+27sw673770 0.0 10121047
15:00+28wsw693898 0.0 1011647
18:00+23wnw256458 0.3 101194
21:00+24wsw456014 0.4 101154
30 july, fri
fri3000:00+22wnw446989 0.2 101134
03:00+22w446929 0.5 101131
06:00+23nw34695 0.0 101260
09:00+26nw23554 0.0 1012288
12:00+28wnw234861 0.0 1012824
15:00+29wnw134442 0.0 1011885
18:00+29sw4548100 0.0 101186
21:00+26nw335377 0.0 101141